Vorticity
6 7 8 7 9 9 8 7 7 7 7 7 7 6 5 5 4 4 3 4 4 4 5 5 5 5 6
6 8 9 9 9 10 10 10 8 7 7 7 6 5 4 3 3 3 4 4 4 4 4 4 5 4 4
11 10 9 9 8 8 7 7 7 6 5 5 5 5 5 5 5 5 4 4 5 7 6 6 6 6 5
11 9 7 6 7 5 4 5 4 5 6 5 5 5 5 5 6 5 5 4 4 5 5 7 7 6 5
9 9 8 7 7 5 6 5 4 4 3 6 6 7 7 7 6 7 9 9 8 6 8 10 6 8 7
5 6 6 7 6 5 5 5 5 5 4 5 6 8 10 9 9 10 10 9 8 8 9 7 8 10 9
8 6 5 2 5 6 7 7 10 15 15 15 24 28 33 39 46 46 42 37 35 30 17 9 7 7 11
6 9 10 11 13 14 20 22 32 31 27 27 23 24 22 20 17 18 22 28 33 35 42 44 36 22 14
12 16 21 29 31 30 24 24 26 27 24 20 20 20 18 19 20 19 18 19 16 19 23 31 34 33 27
30 32 20 17 21 26 25 21 19 21 24 23 25 30 27 32 30 27 24 22 21 18 15 19 28 35 25
17 19 22 19 17 17 18 23 27 30 32 28 29 27 26 31 27 26 24 23 23 24 21 16 17 28 30
23 18 14 16 13 15 20 21 29 31 27 25 25 25 24 23 25 20 21 20 20 22 24 25 20 19 30
13 13 14 10 14 18 17 15 13 23 27 21 18 16 17 18 17 18 18 17 23 23 23 26 26 16 26
13 13 9 11 21 19 16 14 15 9 6 11 22 25 20 14 14 14 18 19 17 23 26 28 28 22 24
14 11 9 17 23 20 17 19 16 15 17 12 9 5 9 23 24 14 13 20 20 18 26 27 30 38 6
11 10 11 18 14 13 13 10 9 7 13 16 17 15 11 11 20 25 11 15 21 26 20 33 22 27 32
12 9 10 12 9 6 12 15 10 7 13 20 20 21 19 6 18 21 19 11 3 7 2 15 14 17 26
Height
5670 5666 5663 5660 5657 5653 5649 5646 5643 5641 5638 5636 5634 5633 5632 5631 5631 5631 5631 5632 5634 5635 5637 5638 5638 5640 5643
5651 5647 5643 5639 5636 5634 5631 5627 5623 5620 5618 5615 5613 5611 5609 5608 5608 5610 5610 5611 5613 5615 5618 5621 5624 5624 5628
5631 5625 5622 5619 5616 5612 5609 5606 5602 5598 5595 5592 5590 5586 5584 5582 5582 5582 5585 5587 5590 5593 5596 5600 5605 5608 5610
5610 5604 5599 5595 5591 5588 5588 5584 5580 5576 5570 5564 5562 5560 5557 5555 5554 5554 5556 5558 5562 5567 5571 5576 5581 5586 5591
5591 5585 5579 5573 5567 5562 5557 5552 5550 5547 5541 5536 5532 5527 5521 5520 5521 5522 5524 5526 5530 5536 5542 5548 5554 5560 5566
5570 5564 5558 5550 5544 5538 5532 5526 5522 5515 5505 5502 5496 5492 5485 5483 5483 5482 5483 5488 5494 5501 5508 5516 5524 5531 5537
5547 5539 5532 5523 5517 5511 5504 5496 5490 5486 5469 5465 5462 5457 5450 5449 5445 5443 5443 5445 5450 5458 5468 5479 5488 5498 5506
5522 5513 5503 5494 5484 5477 5470 5461 5456 5452 5433 5427 5430 5424 5422 5420 5417 5412 5411 5413 5414 5418 5426 5436 5448 5458 5470
5496 5486 5475 5464 5453 5446 5440 5432 5427 5426 5410 5394 5400 5395 5392 5393 5390 5385 5384 5385 5387 5390 5395 5402 5411 5419 5430
5471 5460 5451 5443 5433 5422 5416 5409 5401 5400 5384 5372 5373 5366 5367 5367 5365 5362 5359 5359 5363 5366 5370 5376 5384 5390 5399
5451 5442 5433 5425 5416 5406 5396 5386 5379 5372 5362 5351 5352 5347 5342 5347 5348 5343 5339 5339 5339 5344 5347 5354 5362 5367 5374
5432 5424 5417 5409 5400 5391 5381 5370 5361 5352 5346 5339 5336 5333 5331 5331 5331 5329 5326 5324 5324 5326 5328 5334 5342 5349 5354
5418 5411 5403 5395 5387 5379 5370 5362 5353 5342 5335 5330 5326 5324 5320 5319 5318 5317 5315 5315 5310 5312 5315 5319 5326 5334 5340
5406 5399 5391 5383 5374 5366 5361 5354 5347 5339 5329 5322 5318 5314 5312 5309 5307 5307 5304 5304 5302 5301 5304 5307 5313 5320 5328
5392 5387 5380 5372 5364 5356 5350 5345 5339 5332 5326 5317 5311 5307 5303 5299 5298 5297 5296 5295 5294 5295 5296 5298 5303 5311 5317
5382 5376 5370 5363 5357 5350 5343 5337 5331 5324 5317 5310 5305 5301 5297 5292 5288 5289 5288 5288 5288 5290 5291 5294 5300 5304 5309
5372 5367 5362 5356 5350 5343 5337 5330 5324 5318 5310 5302 5296 5293 5291 5287 5282 5279 5282 5282 5284 5285 5288 5292 5295 5298 5302